TimePDT,TemperatureF,Dew PointF,Humidity,Sea Level PressureIn,VisibilityMPH,Wind Direction,Wind SpeedMPH,Gust SpeedMPH,PrecipitationIn,Events,Conditions,WindDirDegrees,DateUTC
12:53 AM,66.9,35.1,31,29.93,10.0,NNW,3.5,-,N/A,,Clear,340,2013-06-16 07:53:00
1:53 AM,66.9,34.0,30,29.94,10.0,North,6.9,-,N/A,,Partly Cloudy,360,2013-06-16 08:53:00
2:53 AM,66.0,37.0,34,29.93,10.0,North,8.1,-,N/A,,Clear,350,2013-06-16 09:53:00
3:53 AM,64.9,34.0,32,29.94,10.0,NNW,6.9,-,N/A,,Clear,340,2013-06-16 10:53:00
4:53 AM,59.0,34.0,39,29.95,10.0,North,4.6,-,N/A,,Clear,360,2013-06-16 11:53:00
5:53 AM,63.0,34.0,34,29.96,10.0,NNW,5.8,-,N/A,,Clear,330,2013-06-16 12:53:00
6:53 AM,66.9,35.1,31,29.98,10.0,North,6.9,-,N/A,,Clear,10,2013-06-16 13:53:00
7:53 AM,70.0,36.0,29,29.98,10.0,North,10.4,-,N/A,,Clear,10,2013-06-16 14:53:00
8:53 AM,73.9,37.0,26,29.97,10.0,North,13.8,-,N/A,,Clear,10,2013-06-16 15:53:00
9:53 AM,80.1,36.0,20,29.97,10.0,NE,8.1,-,N/A,,Clear,50,2013-06-16 16:53:00
10:53 AM,82.9,35.1,18,29.96,10.0,NE,10.4,-,N/A,,Clear,50,2013-06-16 17:53:00
11:53 AM,82.9,34.0,17,29.95,10.0,Variable,4.6,-,N/A,,Clear,0,2013-06-16 18:53:00
12:53 PM,84.0,36.0,18,29.94,10.0,Variable,3.5,-,N/A,,Clear,0,2013-06-16 19:53:00
1:53 PM,87.1,35.1,16,29.91,10.0,Calm,Calm,-,N/A,,Clear,0,2013-06-16 20:53:00
2:53 PM,89.1,34.0,14,29.89,10.0,Variable,4.6,-,N/A,,Clear,0,2013-06-16 21:53:00
3:53 PM,88.0,36.0,16,29.88,10.0,Variable,3.5,-,N/A,,Clear,0,2013-06-16 22:53:00
4:53 PM,89.1,37.0,16,29.87,10.0,Variable,5.8,-,N/A,,Clear,0,2013-06-16 23:53:00
5:53 PM,87.1,37.0,17,29.86,10.0,WNW,3.5,-,N/A,,Clear,290,2013-06-17 00:53:00
6:53 PM,87.1,35.1,16,29.85,10.0,WSW,5.8,-,N/A,,Clear,240,2013-06-17 01:53:00
7:53 PM,84.0,41.0,22,29.86,10.0,WSW,8.1,-,N/A,,Clear,250,2013-06-17 02:53:00
8:53 PM,82.0,35.1,18,29.86,10.0,West,8.1,-,N/A,,Clear,280,2013-06-17 03:53:00
9:53 PM,78.1,35.1,21,29.86,10.0,NW,6.9,-,N/A,,Clear,310,2013-06-17 04:53:00
10:53 PM,77.0,39.0,25,29.86,10.0,WNW,17.3,-,N/A,,Clear,300,2013-06-17 05:53:00
11:53 PM,75.0,42.1,31,29.87,10.0,NW,12.7,24.2,N/A,,Partly Cloudy,320,2013-06-17 06:53:00